User: anonymous   Login
Location: Unspecified
(0.0000°N, 0.0000°E)
Time: 16:59:19
(UTC+00:00)
Language:

N. Korean satellite - Orbit

View from above orbital plane
View from above orbital plane
View from above satellite
View from above satellite

Ground track
Ground track

The orbit data is extracted from the following two-line orbital elements,

1 39026U 12072A   15244.55308586  .00003141  00000-0  14163-3 0  9995
2 39026  97.2783 273.5252 0044361 329.3278  30.5365 15.20870678150312
Epoch (UTC): 01 September 2015 13:16:26
Eccentricity: 0.0044361
inclination: 97.2783°
perigee height: 472 km
apogee height: 534 km
right ascension of ascending node: 273.5252°
argument of perigee: 329.3278°
revolutions per day: 15.20870678
mean anomaly at epoch: 30.5365°
orbit number at epoch: 15031

The dashed part of the orbit path shows where the satellite is in the earth's shadow,  

DLR